GW0781 Weather Reports


time (UTC)temp
C
wind
direction
speed
KPH
gust
KPH
rain 1hr
cm
rain 24hr
cm
rain mn
cm
humidity
%
barometer
mb
20260503213535 9 268 1.6 9.7 0.00 0.00 0.00 48 1019.4
20260503213050 8 280 3.2 9.7 0.00 0.00 0.00 47 1019.3
20260503212537 9 267 3.2 9.7 0.00 0.00 0.00 45 1019.3
20260503212034 9 266 4.8 9.7 0.00 0.00 0.00 46 1019.4
20260503211602 9 285 3.2 9.7 0.00 0.00 0.00 45 1019.4
20260503211035 9 265 3.2 6.4 0.00 0.00 0.00 46 1019.4
20260503210535 10 267 3.2 6.4 0.00 0.00 0.00 42 1019.4
20260503210050 10 346 3.2 9.7 0.00 0.00 0.00 43 1019.4
20260503205535 10 264 3.2 9.7 0.00 0.00 0.00 44 1019.5
20260503205035 10 278 1.6 6.4 0.00 0.00 0.00 43 1019.5
20260503204545 10 288 1.6 6.4 0.00 0.00 0.00 42 1019.7
20260503204035 10 271 1.6 8.0 0.00 0.00 0.00 45 1019.6
20260503203535 10 266 3.2 8.0 0.00 0.00 0.00 42 1019.6
20260503203105 10 294 1.6 9.7 0.00 0.00 0.00 42 1019.5
20260503202538 10 142 1.6 11.3 0.00 0.00 0.00 43 1019.5
20260503202035 10 136 1.6 11.3 0.00 0.00 0.00 43 1019.5
20260503201546 10 209 1.6 9.7 0.00 0.00 0.00 42 1019.5
20260503201035 10 267 3.2 9.7 0.00 0.00 0.00 47 1019.6
20260503200536 10 331 1.6 9.7 0.00 0.00 0.00 44 1019.7
20260503200053 10 274 3.2 9.7 0.00 0.00 0.00 44 1019.7
20260503195535 10 264 1.6 9.7 0.00 0.00 0.00 46 1019.8
20260503195035 10 40 4.8 9.7 0.00 0.00 0.00 45 1019.9
20260503194554 10 0 4.8 9.7 0.00 0.00 0.00 43 1019.9
20260503194035 11 277 4.8 9.7 0.00 0.00 0.00 41 1020.1
20260503193536 11 327 1.6 8.0 0.00 0.00 0.00 45 1019.9
20260503193052 11 352 1.6 8.0 0.00 0.00 0.00 46 1020.0
20260503192536 11 0 1.6 6.4 0.00 0.00 0.00 44 1020.0
20260503192035 11 290 3.2 6.4 0.00 0.00 0.00 43 1020.0
20260503191546 11 294 1.6 6.4 0.00 0.00 0.00 44 1020.1
20260503191038 11 46 1.6 6.4 0.00 0.00 0.00 47 1020.1
20260503190536 11 323 0.0 9.7 0.00 0.00 0.00 47 1020.2
20260503190045 10 355 1.6 9.7 0.00 0.00 0.00 43 1020.1
20260503185535 11 0 1.6 9.7 0.00 0.00 0.00 47 1020.1
20260503185035 10 0 3.2 8.0 0.00 0.00 0.00 46 1020.1
20260503184544 10 273 0.0 6.4 0.00 0.00 0.00 48 1020.1
20260503184035 10 261 1.6 6.4 0.00 0.00 0.00 49 1020.1
20260503183534 10 238 1.6 4.8 0.00 0.00 0.00 45 1020.1
20260503183050 10 40 1.6 4.8 0.00 0.00 0.00 48 1020.1
20260503182536 10 332 1.6 6.4 0.00 0.00 0.00 48 1020.1
20260503182036 10 0 1.6 6.4 0.00 0.00 0.00 48 1020.1
20260503181559 10 0 0.0 4.8 0.00 0.00 0.00 48 1020.1
20260503181035 10 0 1.6 6.4 0.00 0.00 0.00 50 1020.1
20260503180537 10 288 1.6 8.0 0.00 0.00 0.00 48 1020.2
20260503180048 10 300 1.6 9.7 0.00 0.00 0.00 51 1020.2
20260503175535 10 317 1.6 9.7 0.00 0.00 0.00 49 1020.2
20260503175036 10 239 1.6 8.0 0.00 0.00 0.00 53 1020.1
20260503174544 9 217 1.6 8.0 0.00 0.00 0.00 52 1020.2
20260503174035 9 291 0.0 4.8 0.00 0.00 0.00 54 1020.2
20260503173535 9 263 1.6 6.4 0.00 0.00 0.00 54 1020.3
20260503173052 9 151 1.6 6.4 0.00 0.00 0.00 52 1020.3
20260503172536 8 0 3.2 6.4 0.00 0.00 0.00 52 1020.3
20260503172034 8 290 0.0 4.8 0.00 0.00 0.00 52 1020.3
20260503171548 8 251 0.0 4.8 0.00 0.00 0.00 55 1020.2
20260503171036 8 205 1.6 4.8 0.00 0.00 0.00 52 1020.2
20260503170535 8 229 0.0 3.2 0.00 0.00 0.00 53 1020.2
20260503150535 2 0 0.0 3.2 0.00 0.00 0.00 81 1020.1
20260503131038 -1 294 0.0 1.6 0.00 0.00 0.00 88 1019.3
20260503130535 -1 0 0.0 4.8 0.00 0.00 0.00 88 1019.2
20260503110536 -1 0 0.0 3.2 0.00 0.00 0.00 89 1017.8
20260503081545 -1 0 0.0 6.4 0.00 0.00 0.00 86 1016.6
20260503081035 -1 0 0.0 6.4 0.00 0.00 0.00 86 1016.6
20260503080536 -1 57 0.0 6.4 0.00 0.00 0.00 86 1016.6
20260503072535 -1 229 3.2 9.7 0.00 0.00 0.00 84 1016.2
20260503072035 -1 182 1.6 11.3 0.00 0.00 0.00 84 1016.2
20260503071558 -1 267 1.6 11.3 0.00 0.00 0.00 84 1016.3
20260503071035 -1 276 1.6 8.0 0.00 0.00 0.00 84 1016.2
20260503070535 -1 0 0.0 6.4 0.00 0.00 0.00 83 1016.2
20260503060103 0 276 3.2 9.7 0.00 0.00 0.00 81 1016.4
20260503055035 0 0 0.0 9.7 0.00 0.00 0.00 81 1016.6
20260503054547 0 265 4.8 9.7 0.00 0.00 0.00 80 1016.6
20260503054035 0 284 3.2 6.4 0.00 0.00 0.00 80 1016.6
20260503053535 0 276 3.2 6.4 0.00 0.00 0.00 80 1016.7
20260503053045 0 281 3.2 6.4 0.00 0.00 0.00 79 1016.8
20260503052535 0 276 4.8 6.4 0.00 0.00 0.00 79 1016.8
20260503052034 0 281 3.2 9.7 0.00 0.00 0.00 79 1016.7
20260503051541 0 266 3.2 9.7 0.00 0.00 0.00 78 1016.7
20260503051034 0 287 3.2 6.4 0.00 0.00 0.00 78 1016.7
20260503050537 0 255 1.6 6.4 0.00 0.00 0.00 78 1016.6
20260503050039 0 287 1.6 4.8 0.00 0.00 0.00 78 1016.7
20260503045537 0 275 1.6 6.4 0.00 0.00 0.00 78 1016.6
20260503045035 0 289 1.6 6.4 0.00 0.00 0.00 78 1016.7
20260503044545 0 265 3.2 6.4 0.00 0.00 0.00 77 1016.7
20260503044035 0 259 3.2 6.4 0.00 0.00 0.00 78 1016.6
20260503043536 0 257 1.6 6.4 0.00 0.00 0.00 78 1016.6
20260503043037 0 249 1.6 8.0 0.00 0.00 0.00 78 1016.6
20260503042536 0 46 3.2 8.0 0.00 0.00 0.00 78 1016.6
20260503042034 0 207 1.6 8.0 0.00 0.00 0.00 78 1016.6
20260503041542 0 273 1.6 4.8 0.00 0.00 0.00 78 1016.6
20260503041035 0 304 1.6 4.8 0.00 0.00 0.00 78 1016.6
20260503040535 0 308 1.6 6.4 0.00 0.00 0.00 78 1016.6
20260503040040 0 332 1.6 6.4 0.00 0.00 0.00 77 1016.4
20260503035535 0 219 1.6 11.3 0.00 0.00 0.00 77 1016.3
20260503035036 0 297 1.6 11.3 0.00 0.00 0.00 77 1016.3
20260503034549 0 267 4.8 11.3 0.00 0.00 0.00 78 1016.4
20260503034036 0 267 3.2 6.4 0.00 0.00 0.00 79 1016.4
20260503033534 0 304 3.2 9.7 0.00 0.00 0.00 79 1016.4
20260503033056 0 263 3.2 9.7 0.00 0.00 0.00 79 1016.4
20260503032535 0 304 1.6 9.7 0.00 0.00 0.00 79 1016.5
20260503032036 0 32 3.2 6.4 0.00 0.00 0.00 78 1016.5
20260503031546 0 0 0.0 6.4 0.00 0.00 0.00 78 1016.4
20260503031034 0 0 1.6 11.3 0.00 0.00 0.00 78 1016.5
20260503030535 0 271 3.2 16.1 0.00 0.00 0.00 78 1016.4
20260503030046 0 180 1.6 16.1 0.00 0.00 0.00 78 1016.2
20260503025535 0 205 1.6 8.0 0.00 0.00 0.00 78 1016.4
20260503025035 0 116 3.2 8.0 0.00 0.00 0.00 77 1016.4
20260503024548 0 290 1.6 8.0 0.00 0.00 0.00 77 1016.4
20260503024035 0 268 3.2 8.0 0.00 0.00 0.00 77 1016.2
20260503023534 0 321 1.6 4.8 0.00 0.00 0.00 77 1016.2
20260503023059 0 296 1.6 16.1 0.00 0.00 0.00 76 1016.2
20260503022534 0 273 1.6 16.1 0.00 0.00 0.00 76 1016.2
20260503022035 0 260 1.6 14.5 0.00 0.00 0.00 76 1016.2
20260503021551 0 244 4.8 14.5 0.00 0.00 0.00 76 1016.2
20260503021034 0 250 3.2 14.5 0.00 0.00 0.00 75 1016.1
20260503020534 0 332 1.6 8.0 0.00 0.00 0.00 76 1016.1
20260503020046 0 268 1.6 8.0 0.00 0.00 0.00 75 1016.1
20260503015534 0 19 3.2 6.4 0.00 0.00 0.00 75 1016.0
20260503015035 0 304 1.6 8.0 0.00 0.00 0.00 74 1015.9
20260503014543 1 217 1.6 8.0 0.00 0.00 0.00 74 1015.9
20260503014035 1 268 3.2 8.0 0.00 0.00 0.00 74 1016.0
20260503013535 1 263 1.6 14.5 0.00 0.00 0.00 73 1015.8
20260503013058 1 311 1.6 14.5 0.00 0.00 0.00 74 1015.7
20260503012535 1 148 3.2 14.5 0.00 0.00 0.00 73 1015.6
20260503012035 1 294 1.6 6.4 0.00 0.00 0.00 72 1015.6
20260503011600 1 211 3.2 9.7 0.00 0.00 0.00 72 1015.7
20260503011036 1 269 1.6 9.7 0.00 0.00 0.00 71 1015.6
20260503010534 1 0 3.2 8.0 0.00 0.00 0.00 71 1015.6
20260503010050 1 39 3.2 12.9 0.00 0.00 0.00 70 1015.5
20260503005537 1 0 1.6 12.9 0.00 0.00 0.00 70 1015.5
20260503005035 1 58 3.2 12.9 0.00 0.00 0.00 70 1015.5
20260503004546 1 173 3.2 9.7 0.00 0.00 0.00 70 1015.4
20260503004035 1 189 1.6 9.7 0.00 0.00 0.00 69 1015.6
20260503003535 1 248 3.2 11.3 0.00 0.00 0.00 69 1015.4
20260503003105 1 307 4.8 14.5 0.00 0.00 0.00 68 1015.4
20260503002535 1 311 4.8 9.7 0.00 0.00 0.00 67 1015.3
20260503002035 1 330 3.2 11.3 0.00 0.00 0.00 67 1015.3
20260503001538 2 283 3.2 11.3 0.00 0.00 0.00 66 1015.2
20260503001036 2 11 3.2 12.9 0.00 0.00 0.00 66 1015.2
20260503000536 2 346 4.8 16.1 0.00 0.00 0.00 65 1015.1
20260503000100 2 234 3.2 16.1 0.00 0.00 0.00 65 1015.1
20260502235536 2 248 3.2 11.3 0.00 0.00 0.00 64 1015.1
20260502235036 2 115 3.2 9.7 0.00 0.00 0.00 63 1014.9
20260502234545 2 279 1.6 14.5 0.00 0.00 0.00 63 1014.9
20260502234036 3 209 1.6 14.5 0.00 0.00 0.00 63 1014.7
20260502233536 3 51 3.2 9.7 0.00 0.00 0.00 61 1014.8
20260502233047 3 288 3.2 11.3 0.00 0.00 0.00 61 1014.8
20260502232536 3 248 1.6 12.9 0.00 0.00 0.00 60 1014.6
20260502232036 3 256 4.8 12.9 0.00 0.00 0.00 60 1014.8
20260502231545 3 352 3.2 12.9 0.00 0.00 0.00 60 1014.9
20260502231037 3 277 3.2 12.9 0.00 0.00 0.00 59 1014.5
20260502230537 3 264 3.2 9.7 0.00 0.00 0.00 58 1014.5
20260502230052 3 0 1.6 11.3 0.00 0.00 0.00 59 1014.4
20260502225536 3 338 3.2 11.3 0.00 0.00 0.00 57 1014.5
20260502225037 3 300 4.8 16.1 0.00 0.00 0.00 59 1014.5
20260502224550 3 334 4.8 16.1 0.00 0.00 0.00 60 1014.5
20260502224036 3 325 6.4 17.7 0.00 0.00 0.00 60 1014.6
20260502223536 3 313 8.0 17.7 0.00 0.00 0.00 60 1014.5
20260502223046 3 286 4.8 16.1 0.00 0.00 0.00 58 1014.5
20260502222536 3 266 6.4 14.5 0.00 0.00 0.00 57 1014.5
20260502222037 4 337 8.0 17.7 0.00 0.00 0.00 57 1014.4
20260502221541 4 250 6.4 17.7 0.00 0.00 0.00 56 1014.3
20260502221037 4 279 4.8 14.5 0.00 0.00 0.00 58 1014.5
20260502220537 5 274 8.0 14.5 0.00 0.00 0.00 56 1014.5
20260502220049 4 279 8.0 16.1 0.00 0.00 0.00 56 1014.2
20260502215537 5 281 9.7 16.1 0.00 0.00 0.00 54 1014.2
20260502215037 5 265 8.0 16.1 0.00 0.00 0.00 56 1014.2
20260502214543 5 283 6.4 14.5 0.00 0.00 0.00 58 1014.2
20260502214037 5 290 6.4 14.5 0.00 0.00 0.00 56 1014.0